sat.trackr.live / text

‹ back to catalog

STARLINK-31163

NORAD 58807 · 2024-012W

PAYLOAD ACTIVE UNKNOWN

§ Identity

Operator
Country
US
Launch date
2024-01-15
Launch site
AFETR
Launch vehicle
Mass (kg)
RCS (m²)

Purposes: comms

External: N2YO · Heavens-Above · Gunter

§ Orbital elements

Epoch: 2026-09-20T22:48:54.065664Z

Period
94.22 min
Inclination
43.0000°
Eccentricity
0.0002528
Mean motion
15.28410540 rev/d
Perigee alt
478.8 km
Apogee alt
482.3 km
Semi-major
6,858.7 km
B*
1.0275e-3
RAAN
142.0757°
Arg perigee
228.8173°
Mean anomaly
131.2461°
Rev number
15,110

§ Raw data

STARLINK-311631 58807U 24012W   26263.95062576  .00028853  00000+0  10275-2 0  99982 58807  43.0000 142.0757 0002528 228.8173 131.2461 15.28410540151107

JSON: /api/v1/satellites/58807 · /tle

For live sub-satellite position, see the globe view (requires WebGL).

§ Visibility from observer

Set your observer location to see the next 7 days of passes ≥ 10°. The values pass through the URL so the page stays shareable.

No JS? Fill the form by hand. The geolocation button needs JavaScript.